sat.trackr.live / text

‹ back to catalog

TKSAT-1 (TUPAC KATARI)

NORAD 39481 · 2013-075A

PAYLOAD ACTIVE UNKNOWN

§ Identity

Operator
Country
BOL
Launch date
2013-12-20
Launch site
XICLF
Launch vehicle
Mass (kg)
RCS (m²)
40.97

Purposes: comms

External: N2YO · Heavens-Above · Gunter

§ Orbital elements

Epoch: 2026-05-25T03:26:38.623776Z

Period
1,436.08 min
Inclination
0.0248°
Eccentricity
0.0002648
Mean motion
1.00272727 rev/d
Perigee alt
35,775.2 km
Apogee alt
35,797.5 km
Semi-major
42,164.5 km
B*
0.0000e+0
RAAN
88.4453°
Arg perigee
319.9677°
Mean anomaly
158.7842°
Rev number
4,537

§ Raw data

TKSAT-1 (TUPAC KATARI)1 39481U 13075A   26145.14350259 -.00000197  00000+0  00000+0 0  99942 39481   0.0248  88.4453 0002648 319.9677 158.7842  1.00272727 45377

JSON: /api/v1/satellites/39481 · /tle

For live sub-satellite position, see the globe view (requires WebGL).

§ Visibility from observer

Set your observer location to see the next 7 days of passes ≥ 10°. The values pass through the URL so the page stays shareable.

No JS? Fill the form by hand. The geolocation button needs JavaScript.